• în Republica Moldova
  • Lista ţărilor
  • Pe 7 zile
  • Temperatura apei
  • Hartă satelitară
  • Meteo pe hartă
  • Widget-uri
  • user-avatar
    Intrare

    Meteo pe oră la Townsville

    Astăzi, 23 Iulie, Duminică

    Timp Temperatura Precipitaţii Vânt Presiune Umiditate
    00:00 +17°C° 0 mm 3 m/s 757 mmHg 90%
    01:00 +17°C° 0 mm 3 m/s 757 mmHg 91%
    02:00 +17°C° 0 mm 3 m/s 757 mmHg 92%
    03:00 +17°C° 0 mm 3 m/s 757 mmHg 93%
    04:00 +17°C° 0 mm 3 m/s 757 mmHg 94%
    05:00 +17°C° 0 mm 3 m/s 757 mmHg 95%
    06:00 +17°C° 0 mm 3 m/s 757 mmHg 96%
    07:00 +16°C° 0 mm 3 m/s 757 mmHg 96%
    08:00 +19°C° 0 mm 3 m/s 758 mmHg 86%
    09:00 +21°C° 0 mm 3 m/s 758 mmHg 76%
    10:00 +25°C° 0 mm 4 m/s 758 mmHg 66%
    11:00 +26°C° 0 mm 4 m/s 757 mmHg 61%
    12:00 +26°C° 0 mm 4 m/s 757 mmHg 57%
    13:00 +27°C° 0 mm 4 m/s 756 mmHg 53%
    14:00 +27°C° 0 mm 4 m/s 756 mmHg 55%
    15:00 +27°C° 0 mm 4 m/s 755 mmHg 56%
    16:00 +26°C° 0 mm 4 m/s 755 mmHg 58%
    17:00 +23°C° 0 mm 4 m/s 755 mmHg 67%
    18:00 +21°C° 0 mm 4 m/s 756 mmHg 76%
    19:00 +19°C° 0 mm 3 m/s 756 mmHg 86%
    20:00 +19°C° 0 mm 3 m/s 756 mmHg 88%
    21:00 +19°C° 0 mm 3 m/s 757 mmHg 90%
    22:00 +18°C° 0 mm 3 m/s 757 mmHg 92%
    23:00 +18°C° 0 mm 4 m/s 757 mmHg 93%

    Mâine, 24 Iulie, Luni

    Timp Temperatura Precipitaţii Vânt Presiune Umiditate
    00:00 +18°C° 0 mm 4 m/s 757 mmHg 94%
    01:00 +18°C° 0 mm 4 m/s 757 mmHg 94%
    02:00 +18°C° 0 mm 4 m/s 757 mmHg 95%
    03:00 +18°C° 0 mm 4 m/s 757 mmHg 96%
    04:00 +18°C° 0 mm 4 m/s 757 mmHg 96%
    05:00 +17°C° 0 mm 4 m/s 757 mmHg 97%
    06:00 +17°C° 0 mm 4 m/s 757 mmHg 97%
    07:00 +17°C° 0 mm 4 m/s 758 mmHg 98%
    08:00 +19°C° 0 mm 4 m/s 758 mmHg 86%
    09:00 +22°C° 0 mm 4 m/s 758 mmHg 74%
    10:00 +25°C° 0 mm 4 m/s 759 mmHg 63%
    11:00 +26°C° 0 mm 4 m/s 758 mmHg 57%
    12:00 +27°C° 0 mm 5 m/s 757 mmHg 51%
    13:00 +28°C° 0 mm 5 m/s 757 mmHg 46%
    14:00 +28°C° 0 mm 5 m/s 756 mmHg 48%
    15:00 +28°C° 0 mm 5 m/s 756 mmHg 50%
    16:00 +27°C° 0 mm 6 m/s 755 mmHg 53%
    17:00 +25°C° 0 mm 5 m/s 756 mmHg 62%
    18:00 +22°C° 0 mm 5 m/s 756 mmHg 71%
    19:00 +20°C° 0 mm 5 m/s 757 mmHg 80%
    20:00 +20°C° 0 mm 5 m/s 757 mmHg 82%
    21:00 +19°C° 0 mm 5 m/s 758 mmHg 85%
    22:00 +19°C° 0 mm 5 m/s 758 mmHg 87%
    23:00 +19°C° 0 mm 5 m/s 758 mmHg 89%

    Poimâine, 25 Iulie, Marţi

    Timp Temperatura Precipitaţii Vânt Presiune Umiditate
    00:00 +17°C° 0 mm 5 m/s 758 mmHg 91%
    01:00 +17°C° 0 mm 5 m/s 758 mmHg 93%
    02:00 +18°C° 0 mm 4 m/s 757 mmHg 93%
    03:00 +17°C° 0 mm 4 m/s 757 mmHg 94%
    04:00 +17°C° 0 mm 4 m/s 757 mmHg 95%
    05:00 +17°C° 0 mm 4 m/s 757 mmHg 95%
    06:00 +17°C° 0 mm 4 m/s 758 mmHg 96%
    07:00 +15°C° 0 mm 4 m/s 758 mmHg 96%
    08:00 +19°C° 0 mm 5 m/s 759 mmHg 84%
    09:00 +21°C° 0 mm 5 m/s 759 mmHg 71%
    10:00 +25°C° 0 mm 5 m/s 759 mmHg 59%
    11:00 +26°C° 0 mm 5 m/s 758 mmHg 54%
    12:00 +27°C° 0 mm 5 m/s 758 mmHg 49%
    13:00 +28°C° 0 mm 6 m/s 757 mmHg 43%
    14:00 +27°C° 0 mm 6 m/s 757 mmHg 45%
    15:00 +27°C° 0 mm 6 m/s 756 mmHg 47%
    16:00 +27°C° 0 mm 6 m/s 756 mmHg 49%
    17:00 +24°C° 0 mm 6 m/s 756 mmHg 57%
    18:00 +22°C° 0 mm 6 m/s 757 mmHg 66%
    19:00 +20°C° 0 mm 6 m/s 757 mmHg 74%
    20:00 +20°C° 0 mm 6 m/s 758 mmHg 77%
    21:00 +19°C° 0 mm 6 m/s 758 mmHg 81%
    22:00 +19°C° 0 mm 5 m/s 758 mmHg 84%
    23:00 +17°C° 0 mm 5 m/s 758 mmHg 86%

    26 Iulie, Miercuri

    Timp Temperatura Precipitaţii Vânt Presiune Umiditate
    00:00 +17°C° 0 mm 5 m/s 758 mmHg 89%
    01:00 +16°C° 0 mm 5 m/s 758 mmHg 91%
    02:00 +16°C° 0 mm 5 m/s 758 mmHg 93%
    03:00 +17°C° 0 mm 4 m/s 758 mmHg 94%
    04:00 +15°C° 0 mm 4 m/s 757 mmHg 95%
    05:00 +15°C° 0,1 mm 4 m/s 758 mmHg 95%
    06:00 +15°C° 0,1 mm 4 m/s 758 mmHg 95%
    07:00 +15°C° 0,1 mm 4 m/s 758 mmHg 95%
    08:00 +17°C° 0 mm 5 m/s 758 mmHg 84%
    09:00 +21°C° 0 mm 5 m/s 759 mmHg 73%
    10:00 +25°C° 0 mm 5 m/s 759 mmHg 61%
    11:00 +25°C° 0,1 mm 5 m/s 758 mmHg 59%
    12:00 +26°C° 0,1 mm 5 m/s 758 mmHg 56%
    13:00 +27°C° 0,1 mm 5 m/s 757 mmHg 53%
    14:00 +26°C° 0,1 mm 6 m/s 757 mmHg 56%
    15:00 +26°C° 0,1 mm 6 m/s 756 mmHg 58%
    16:00 +24°C° 0,1 mm 6 m/s 756 mmHg 60%
    17:00 +23°C° 0 mm 6 m/s 756 mmHg 68%
    18:00 +21°C° 0 mm 6 m/s 757 mmHg 76%
    19:00 +20°C° 0 mm 5 m/s 757 mmHg 84%
    20:00 +19°C° 0 mm 5 m/s 758 mmHg 86%
    21:00 +19°C° 0 mm 5 m/s 758 mmHg 88%
    22:00 +19°C° 0 mm 5 m/s 758 mmHg 90%
    23:00 +17°C° 0 mm 5 m/s 758 mmHg 91%

    27 Iulie, Joi

    Timp Temperatura Precipitaţii Vânt Presiune Umiditate
    00:00 +16°C° 0 mm 5 m/s 758 mmHg 93%
    01:00 +17°C° 0 mm 4 m/s 757 mmHg 94%
    02:00 +15°C° 0 mm 4 m/s 757 mmHg 95%
    03:00 +15°C° 0 mm 4 m/s 757 mmHg 95%
    04:00 +15°C° 0 mm 4 m/s 757 mmHg 95%
    05:00 +15°C° 0,1 mm 4 m/s 757 mmHg 94%
    06:00 +15°C° 0,1 mm 5 m/s 758 mmHg 92%
    07:00 +14°C° 0,1 mm 5 m/s 758 mmHg 91%
    08:00 +17°C° 0 mm 5 m/s 759 mmHg 79%
    09:00 +21°C° 0 mm 5 m/s 759 mmHg 68%
    10:00 +25°C° 0 mm 5 m/s 759 mmHg 56%
    11:00 +26°C° 0 mm 5 m/s 758 mmHg 53%
    12:00 +27°C° 0 mm 6 m/s 758 mmHg 50%
    13:00 +28°C° 0 mm 6 m/s 757 mmHg 47%
    14:00 +28°C° 0 mm 6 m/s 757 mmHg 49%
    15:00 +28°C° 0 mm 6 m/s 756 mmHg 51%
    16:00 +27°C° 0 mm 6 m/s 756 mmHg 54%
    17:00 +24°C° 0 mm 6 m/s 757 mmHg 64%
    18:00 +22°C° 0 mm 6 m/s 757 mmHg 75%
    19:00 +21°C° 0 mm 6 m/s 757 mmHg 86%
    20:00 +20°C° 0 mm 6 m/s 758 mmHg 87%
    21:00 +20°C° 0 mm 6 m/s 758 mmHg 88%
    22:00 +19°C° 0 mm 5 m/s 758 mmHg 90%
    23:00 +19°C° 0 mm 5 m/s 758 mmHg 90%

    28 Iulie, Vineri

    Timp Temperatura Precipitaţii Vânt Presiune Umiditate
    00:00 +17°C° 0 mm 5 m/s 758 mmHg 90%
    01:00 +16°C° 0 mm 5 m/s 758 mmHg 90%
    02:00 +16°C° 0 mm 5 m/s 758 mmHg 90%
    03:00 +15°C° 0 mm 4 m/s 758 mmHg 90%
    04:00 +15°C° 0 mm 4 m/s 758 mmHg 90%
    05:00 +15°C° 0 mm 4 m/s 758 mmHg 90%
    06:00 +14°C° 0 mm 4 m/s 759 mmHg 91%
    07:00 +14°C° 0 mm 4 m/s 759 mmHg 91%
    08:00 +18°C° 0 mm 4 m/s 759 mmHg 80%
    09:00 +21°C° 0 mm 4 m/s 759 mmHg 68%
    10:00 +25°C° 0 mm 5 m/s 759 mmHg 56%
    11:00 +26°C° 0 mm 5 m/s 759 mmHg 53%
    12:00 +27°C° 0 mm 5 m/s 758 mmHg 49%
    13:00 +28°C° 0 mm 6 m/s 757 mmHg 45%
    14:00 +28°C° 0 mm 6 m/s 757 mmHg 47%
    15:00 +27°C° 0 mm 6 m/s 757 mmHg 48%
    16:00 +27°C° 0 mm 6 m/s 757 mmHg 50%
    17:00 +25°C° 0 mm 5 m/s 757 mmHg 59%
    18:00 +22°C° 0 mm 5 m/s 758 mmHg 68%
    19:00 +20°C° 0 mm 5 m/s 758 mmHg 77%
    20:00 +19°C° 0 mm 5 m/s 758 mmHg 80%
    21:00 +19°C° 0 mm 5 m/s 759 mmHg 84%
    22:00 +19°C° 0 mm 4 m/s 759 mmHg 88%
    23:00 +18°C° 0 mm 4 m/s 759 mmHg 89%
    Arată mai mult